ELECTRON KICK STAGE R/B, 65973

Orbit data source: Space-Track

ELECTRON KICK STAGE R/B, 65973 is space debris in LEO originally from a launch on Tue, 14 Oct 2025 UTC launched from the Rocket Lab Launch Complex (RLLC). Debris objects in space refer to the collection of defunct objects orbiting the Earth. Examples of debris include non-operational satellites, rocket bodies, and fragments generated from explosions, collisions, or faulty payload assembly.

Loading next visibility...
Identifier
65973, 2025-229C
Orbit
LEO
Country
Flag of USUS
Related business
Manufacturer
Rocket Lab
Mission
Spacecraft
Bus & Motor
KICK STAGE, CURIE
Mass
~50 kg wet, ~50 kg dry
Launch date (UTC)
2025-10-14 (8 months ago)
Launch vehicle
Unknown
Launch site
Rocket Lab Launch Complex (RLLC)
Object type
Payload
Rocket body
Debris
Shape & HBR
Trunc Cone, 0.7 m
Radar Cross Section
0.760 m², Medium (>0.1 m² and < 1m²)

Expand to show TLE details & history
Last TLE update: 15 hours ago

TLE from 15 hours ago
0 ELECTRON KICK STAGE R/B
1 65973U 25229C   26171.24302277  .00003887  00000-0  27330-3 0  9998
2 65973  41.9820 269.3373 0038689  70.2573 290.2421 15.05714670 37430
Epoch: 2026-06-20T05:49Z
TLE epoch observation values (Epoch: 2026-06-20T05:49:57.167Z)
Latitude
-0.00002°
Longitude
-86.61137°
Altitude
539.798 km
Speed
7.599 km/s
True Right ascension
17h 57m 20s
True Declination
0° 00' 00"
Sunlit
Object was in full shadow at epoch
Visualization orbit readout
Latitude
Unknown
Longitude
Unknown
Altitude
Unknown
Speed
Unknown
Apparent Right ascension
Unknown
Apparent Declination
Unknown
Sunlit
N/A
Visualization observer readout
Local Sidereal Time
07:20:56
Azimuth
Unknown
Elevation
Unknown
Doppler factor
Unknown
Orbital elements
Apogee altitude
578.218 km
Perigee altitude
524.599 km
Semi-major axis
6,929.545 km
Eccentricity
0.00387
Inclination
41.982°
RAAN
269.3373°
Arg. of periapsis
70.2573°
True anomaly
289.82544°
Mean anomaly
290.2421°
Eccentric anomaly
290.03384°
Mean motion
3.76258 °/min
Orbital period
95.68 mins
BSTAR
0.0002733
Loading maneuver chart data...
Computing Atmospheric mass density...
Loading historical data...
Loading historical data...
Loading historical data...
Loading historical data...
Loading historical data...
Loading historical data...
Loading historical data...
Other satellites on launch #229 in the year 2025 (2025-10-14 UTC)

Documentation

Showing up to 5 results
|